• In Österreich
  • Länderverzeichnis
  • Für 7 Tage
  • Wassertemperatur
  • Satellitenkarten
  • Wetterkarte
  • News
  • Widgets
  • user-avatar
    Anmelden

    Stündliche Wetter Berat

    Heute, 25 Februar, Sonntag

    Zeit Temperatur Niederschläge Wind Luftdruck Luftfeuchtigkeit
    00:00 +7°C° 0,1 mm 2 m/S 738 mmHg 84%
    01:00 +7°C° 0 mm 2 m/S 738 mmHg 84%
    02:00 +7°C° 0,1 mm 2 m/S 738 mmHg 83%
    03:00 +7°C° 0,1 mm 2 m/S 738 mmHg 83%
    04:00 +6°C° 0,1 mm 2 m/S 738 mmHg 83%
    05:00 +5°C° 0,2 mm 3 m/S 738 mmHg 82%
    06:00 +5°C° 0,2 mm 3 m/S 738 mmHg 82%
    07:00 +7°C° 0 mm 2 m/S 738 mmHg 85%
    08:00 +8°C° 0,2 mm 3 m/S 738 mmHg 83%
    09:00 +9°C° 0,2 mm 3 m/S 738 mmHg 80%
    10:00 +10°C° 0,2 mm 4 m/S 738 mmHg 77%
    11:00 +10°C° 0,6 mm 4 m/S 738 mmHg 77%
    12:00 +10°C° 0,6 mm 3 m/S 738 mmHg 77%
    13:00 +10°C° 0,6 mm 3 m/S 738 mmHg 77%
    14:00 +9°C° 1,4 mm 3 m/S 737 mmHg 81%
    15:00 +8°C° 1,4 mm 3 m/S 737 mmHg 85%
    16:00 +8°C° 1,4 mm 3 m/S 736 mmHg 89%
    17:00 +7°C° 2 mm 3 m/S 736 mmHg 88%
    18:00 +7°C° 2 mm 3 m/S 735 mmHg 88%
    19:00 +5°C° 2 mm 4 m/S 735 mmHg 88%
    20:00 +5°C° 3,3 mm 4 m/S 734 mmHg 88%
    21:00 +4°C° 3,3 mm 4 m/S 734 mmHg 88%
    22:00 +3°C° 3,3 mm 5 m/S 734 mmHg 88%
    23:00 +3°C° 2,8 mm 4 m/S 733 mmHg 89%

    Morgen, 26 Februar, Montag

    Zeit Temperatur Niederschläge Wind Luftdruck Luftfeuchtigkeit
    00:00 +3°C° 2,8 mm 4 m/S 733 mmHg 90%
    01:00 +3°C° 2,8 mm 4 m/S 732 mmHg 90%
    02:00 +1°C° 0,7 mm 4 m/S 732 mmHg 90%
    03:00 +1°C° 0,7 mm 4 m/S 732 mmHg 89%
    04:00 +1°C° 0,7 mm 4 m/S 732 mmHg 89%
    05:00 +1°C° 0,7 mm 4 m/S 732 mmHg 90%
    06:00 +2°C° 0,7 mm 3 m/S 732 mmHg 91%
    07:00 +2°C° 0,7 mm 3 m/S 732 mmHg 92%
    08:00 +3°C° 0,3 mm 2 m/S 732 mmHg 92%
    09:00 +4°C° 0,3 mm 2 m/S 732 mmHg 91%
    10:00 +4°C° 0,3 mm 2 m/S 732 mmHg 90%
    11:00 +5°C° 0,1 mm 2 m/S 732 mmHg 89%
    12:00 +7°C° 0,1 mm 1 m/S 732 mmHg 87%
    13:00 +8°C° 0,1 mm 1 m/S 732 mmHg 85%
    14:00 +7°C° 0,1 mm 2 m/S 732 mmHg 85%
    15:00 +7°C° 0,1 mm 2 m/S 732 mmHg 85%
    16:00 +7°C° 0,1 mm 2 m/S 732 mmHg 85%
    17:00 +6°C° 1,1 mm 2 m/S 732 mmHg 88%
    18:00 +6°C° 1,1 mm 2 m/S 732 mmHg 91%
    19:00 +5°C° 1,1 mm 2 m/S 732 mmHg 94%
    20:00 +5°C° 1 mm 2 m/S 733 mmHg 95%
    21:00 +5°C° 1 mm 2 m/S 733 mmHg 95%
    22:00 +5°C° 1 mm 2 m/S 733 mmHg 96%
    23:00 +5°C° 0,4 mm 2 m/S 734 mmHg 95%

    übermorgen, 27 Februar, Dienstag

    Zeit Temperatur Niederschläge Wind Luftdruck Luftfeuchtigkeit
    00:00 +4°C° 0,4 mm 2 m/S 734 mmHg 95%
    01:00 +4°C° 0,4 mm 2 m/S 734 mmHg 95%
    02:00 +4°C° 0,5 mm 2 m/S 735 mmHg 94%
    03:00 +3°C° 0,5 mm 3 m/S 735 mmHg 94%
    04:00 +3°C° 0,5 mm 3 m/S 735 mmHg 93%
    05:00 +3°C° 0,3 mm 3 m/S 735 mmHg 93%
    06:00 +2°C° 0,3 mm 3 m/S 736 mmHg 92%
    07:00 +2°C° 0,3 mm 3 m/S 736 mmHg 91%
    08:00 +3°C° 0,3 mm 3 m/S 737 mmHg 88%
    09:00 +3°C° 0,3 mm 4 m/S 737 mmHg 86%
    10:00 +4°C° 0,3 mm 4 m/S 737 mmHg 83%
    11:00 +4°C° 0,2 mm 4 m/S 738 mmHg 81%
    12:00 +4°C° 0,2 mm 4 m/S 738 mmHg 79%
    13:00 +5°C° 0,2 mm 3 m/S 738 mmHg 77%
    14:00 +5°C° 0,1 mm 3 m/S 738 mmHg 76%
    15:00 +6°C° 0,1 mm 2 m/S 738 mmHg 75%
    16:00 +7°C° 0,1 mm 1 m/S 738 mmHg 74%
    17:00 +6°C° 0,1 mm 1 m/S 738 mmHg 78%
    18:00 +5°C° 0,1 mm 1 m/S 739 mmHg 82%
    19:00 +3°C° 0,1 mm 2 m/S 739 mmHg 86%
    20:00 +3°C° 0,4 mm 2 m/S 739 mmHg 87%
    21:00 +3°C° 0,4 mm 2 m/S 739 mmHg 88%
    22:00 +3°C° 0,4 mm 2 m/S 739 mmHg 90%
    23:00 +3°C° 0,9 mm 2 m/S 738 mmHg 91%

    28 Februar, Mittwoch

    Zeit Temperatur Niederschläge Wind Luftdruck Luftfeuchtigkeit
    00:00 +2°C° 0,9 mm 3 m/S 738 mmHg 92%
    01:00 +2°C° 0,9 mm 3 m/S 738 mmHg 93%
    02:00 +3°C° 0,3 mm 2 m/S 737 mmHg 92%
    03:00 +3°C° 0,3 mm 2 m/S 737 mmHg 92%
    04:00 +3°C° 0,3 mm 2 m/S 737 mmHg 91%
    05:00 +3°C° 0 mm 2 m/S 737 mmHg 91%
    06:00 +3°C° 0 mm 2 m/S 737 mmHg 90%
    07:00 +4°C° 0 mm 2 m/S 737 mmHg 90%
    08:00 +5°C° 0,1 mm 2 m/S 737 mmHg 90%
    09:00 +5°C° 0,1 mm 2 m/S 737 mmHg 90%
    10:00 +6°C° 0,1 mm 2 m/S 737 mmHg 90%
    11:00 +5°C° 0,4 mm 3 m/S 738 mmHg 90%
    12:00 +5°C° 0,4 mm 4 m/S 738 mmHg 89%
    13:00 +5°C° 0,4 mm 4 m/S 738 mmHg 89%
    14:00 +5°C° 0,2 mm 4 m/S 739 mmHg 87%
    15:00 +3°C° 0,2 mm 5 m/S 740 mmHg 85%
    16:00 +3°C° 0,2 mm 5 m/S 741 mmHg 83%
    17:00 +1°C° 0 mm 4 m/S 742 mmHg 84%
    18:00 +1°C° 0 mm 3 m/S 742 mmHg 86%
    19:00 0°C° 0 mm 3 m/S 743 mmHg 88%
    20:00 +1°C° 0 mm 2 m/S 744 mmHg 88%
    21:00 -1°C° 0 mm 2 m/S 745 mmHg 87%
    22:00 -1°C° 0 mm 2 m/S 746 mmHg 87%
    23:00 -1°C° 0 mm 2 m/S 746 mmHg 87%

    1 März, Donnerstag

    Zeit Temperatur Niederschläge Wind Luftdruck Luftfeuchtigkeit
    00:00 -1°C° 0 mm 2 m/S 746 mmHg 87%
    01:00 -2°C° 0 mm 2 m/S 746 mmHg 87%
    02:00 -2°C° 0 mm 2 m/S 746 mmHg 86%
    03:00 -2°C° 0 mm 2 m/S 746 mmHg 85%
    04:00 -2°C° 0 mm 2 m/S 746 mmHg 84%
    05:00 -2°C° 0 mm 2 m/S 746 mmHg 82%
    06:00 -1°C° 0 mm 2 m/S 746 mmHg 80%
    07:00 -1°C° 0 mm 2 m/S 747 mmHg 78%
    08:00 +2°C° 0 mm 2 m/S 747 mmHg 74%
    09:00 +4°C° 0 mm 2 m/S 747 mmHg 71%
    10:00 +6°C° 0 mm 2 m/S 746 mmHg 68%
    11:00 +6°C° 0 mm 2 m/S 746 mmHg 68%
    12:00 +7°C° 0 mm 2 m/S 746 mmHg 69%
    13:00 +7°C° 0 mm 2 m/S 746 mmHg 70%
    14:00 +7°C° 0,1 mm 2 m/S 745 mmHg 72%
    15:00 +7°C° 0,1 mm 2 m/S 745 mmHg 75%
    16:00 +7°C° 0,1 mm 2 m/S 744 mmHg 77%
    17:00 +5°C° 0,1 mm 3 m/S 744 mmHg 78%
    18:00 +5°C° 0,1 mm 3 m/S 744 mmHg 80%
    19:00 +4°C° 0,1 mm 3 m/S 744 mmHg 81%
    20:00 +4°C° 0,1 mm 3 m/S 744 mmHg 81%
    21:00 +5°C° 0,1 mm 4 m/S 744 mmHg 81%
    22:00 +5°C° 0,1 mm 4 m/S 743 mmHg 80%
    23:00 +5°C° 0,1 mm 4 m/S 743 mmHg 81%

    2 März, Freitag

    Zeit Temperatur Niederschläge Wind Luftdruck Luftfeuchtigkeit
    00:00 +5°C° 0,1 mm 4 m/S 743 mmHg 82%
    01:00 +5°C° 0,1 mm 4 m/S 742 mmHg 83%
    02:00 +5°C° 0,4 mm 4 m/S 742 mmHg 84%
    03:00 +6°C° 0,4 mm 4 m/S 741 mmHg 85%
    04:00 +6°C° 0,4 mm 5 m/S 740 mmHg 86%
    05:00 +6°C° 0,5 mm 5 m/S 740 mmHg 87%
    06:00 +6°C° 0,5 mm 5 m/S 740 mmHg 87%
    07:00 +6°C° 0,5 mm 5 m/S 739 mmHg 87%
    08:00 +7°C° 0,5 mm 5 m/S 739 mmHg 88%
    09:00 +7°C° 0,5 mm 5 m/S 739 mmHg 88%
    10:00 +7°C° 0,5 mm 5 m/S 739 mmHg 89%
    11:00 +8°C° 0,1 mm 5 m/S 739 mmHg 88%
    12:00 +8°C° 0,1 mm 5 m/S 738 mmHg 87%
    13:00 +9°C° 0,1 mm 5 m/S 738 mmHg 86%
    14:00 +9°C° 0,2 mm 5 m/S 738 mmHg 87%
    15:00 +9°C° 0,2 mm 5 m/S 737 mmHg 88%
    16:00 +8°C° 0,2 mm 4 m/S 737 mmHg 89%
    17:00 +8°C° 0,5 mm 4 m/S 737 mmHg 90%
    18:00 +8°C° 0,5 mm 4 m/S 737 mmHg 90%
    19:00 +8°C° 0,5 mm 4 m/S 737 mmHg 91%
    20:00 +8°C° 0,8 mm 4 m/S 737 mmHg 91%
    21:00 +8°C° 0,8 mm 4 m/S 737 mmHg 91%
    22:00 +8°C° 0,8 mm 4 m/S 737 mmHg 91%
    23:00 +8°C° 0,9 mm 4 m/S 736 mmHg 92%
    Mehr zeigen